Date String (YYYY-MM-DD hh:mm:ss) UTC,Instrument flags,Ambient pressure (hPa),Sample flow (lpm),Bypass flow (lpm),Sample temperature (°C),Ambient temperature (°C),ASC tube jacket temperature (°C),LED temperature (°C),Box temperature (°C),Sample RH (%),Span deviation,Mass concentration (μg/m³),Mass concentration (μg/m³),Mass concentration (μg/m³)
DateTimeUTC,F1_M11,P_M11,Q1_M11,Q2_M11,T1_M11,T2_M11,T3_M11,T4_M11,T5_M11,U1_M11,ZSPAN_M11,X0_M11,X2_M11,X1_M11
2022-11-05 04:00:00,,0817.9,4.99,0.00,24.6,23.0,00.0,33.4,26.5,13.5,-000.8,0012.47,0007.77,0007.36
2022-11-05 04:01:00,,0817.9,5.00,0.00,24.6,23.0,00.0,33.4,26.5,13.6,-000.6,0012.23,0007.81,0007.41
2022-11-05 04:02:00,,0818.0,4.99,0.00,24.6,23.0,00.0,33.4,26.5,13.7,-000.7,0012.22,0007.85,0007.46
2022-11-05 04:03:00,,0818.0,5.00,0.00,24.6,23.0,00.0,33.4,26.5,13.7,-001.0,0012.42,0007.97,0007.54
2022-11-05 04:04:00,,0818.0,5.00,0.00,24.6,23.0,00.0,33.4,26.5,13.6,-001.1,0012.56,0008.05,0007.60
2022-11-05 04:05:00,,0818.0,5.01,0.00,24.6,23.0,00.0,33.4,26.5,13.0,-001.0,0012.36,0008.04,0007.60
2022-11-05 04:06:00,,0818.0,5.01,0.00,24.6,23.0,00.0,33.4,26.5,13.2,-001.0,0012.19,0008.06,0007.63
2022-11-05 04:07:00,,0818.0,5.01,0.00,24.6,23.0,00.0,33.3,26.5,13.5,-001.4,0012.41,0008.18,0007.70
2022-11-05 04:08:00,,0818.0,4.98,0.00,24.6,23.0,00.0,33.3,26.5,13.6,-001.8,0012.62,0008.29,0007.75
2022-11-05 04:09:00,,0818.0,5.00,0.00,24.6,23.0,00.0,33.3,26.4,13.6,-001.7,0012.79,0008.39,0007.81
2022-11-05 04:10:00,,0818.0,5.01,0.00,24.6,23.0,00.0,33.3,26.5,13.7,-001.7,0012.81,0008.38,0007.81
2022-11-05 04:11:00,,0818.0,5.00,0.00,24.5,23.0,00.0,33.3,26.5,13.5,-002.3,0013.07,0008.35,0007.75
2022-11-05 04:12:00,,0818.0,4.98,0.00,24.6,23.0,00.0,33.3,26.4,13.0,-002.5,0012.72,0008.26,0007.67
2022-11-05 04:13:00,,0818.0,5.00,0.00,24.6,23.0,00.0,33.3,26.5,12.5,-002.1,0012.49,0008.10,0007.54
2022-11-05 04:14:00,,0818.0,5.01,0.00,24.5,23.0,00.0,33.3,26.5,12.5,-001.8,0012.28,0007.93,0007.40
2022-11-05 04:15:00,,0818.0,5.01,0.00,24.5,22.9,00.0,33.3,26.4,12.8,-001.9,0012.15,0007.82,0007.31
2022-11-05 04:16:00,,0818.0,5.00,0.00,24.5,22.9,00.0,33.3,26.4,12.9,-001.8,0011.99,0007.81,0007.28
2022-11-05 04:17:00,,0818.0,5.00,0.00,24.5,22.9,00.0,33.3,26.4,13.0,-001.3,0011.97,0007.75,0007.23
2022-11-05 04:18:00,,0818.0,4.99,0.00,24.5,22.9,00.0,33.3,26.4,12.9,-001.2,0011.65,0007.58,0007.12
2022-11-05 04:19:00,,0818.1,4.99,0.00,24.5,22.9,00.0,33.3,26.4,12.7,-000.4,0011.31,0007.38,0007.00
2022-11-05 04:20:00,,0818.3,5.00,0.00,24.5,22.9,00.0,33.3,26.4,12.8,-000.6,0010.59,0007.22,0006.88
2022-11-05 04:21:00,,0818.3,5.00,0.00,24.5,22.9,00.0,33.3,26.4,13.0,-001.2,0010.97,0007.11,0006.79
2022-11-05 04:22:00,,0818.3,5.00,0.00,24.5,22.8,00.0,33.3,26.3,13.1,-000.9,0010.83,0007.07,0006.76
2022-11-05 04:23:00,,0818.2,5.00,0.00,24.5,22.8,00.0,33.3,26.3,13.2,-000.6,0011.16,0007.06,0006.76
2022-11-05 04:24:00,,0818.1,5.00,0.00,24.4,22.8,00.0,33.3,26.3,13.2,-000.6,0011.51,0007.10,0006.78
2022-11-05 04:25:00,,0818.2,5.00,0.00,24.4,22.8,00.0,33.3,26.3,13.0,-001.0,0011.77,0007.13,0006.81
2022-11-05 04:26:00,,0818.2,5.01,0.00,24.4,22.8,00.0,33.3,26.3,12.8,-000.8,0012.43,0007.15,0006.80
2022-11-05 04:27:00,,0818.2,5.00,0.00,24.4,22.8,00.0,33.2,26.3,12.5,-000.7,0012.35,0007.11,0006.76
2022-11-05 04:28:00,,0818.2,4.99,0.00,24.4,22.8,00.0,33.2,26.3,12.5,-000.9,0012.30,0007.08,0006.72
2022-11-05 04:29:00,,0818.2,4.99,0.00,24.4,22.9,00.0,33.2,26.3,12.7,-000.6,0012.46,0007.11,0006.72
2022-11-05 04:30:00,,0818.2,5.00,0.00,24.4,22.9,00.0,33.2,26.4,12.8,-001.2,0012.93,0007.16,0006.72
2022-11-05 04:31:00,,0818.1,5.01,0.00,24.4,22.9,00.0,33.2,26.3,12.8,-001.3,0013.34,0007.17,0006.73
2022-11-05 04:32:00,,0818.0,5.01,0.00,24.4,22.9,00.0,33.2,26.3,12.8,-001.1,0012.98,0007.18,0006.72
2022-11-05 04:33:00,,0818.0,5.00,0.00,24.4,22.9,00.0,33.2,26.3,12.8,-001.0,0012.31,0007.16,0006.69
2022-11-05 04:34:00,,0818.0,4.98,0.00,24.4,22.9,00.0,33.2,26.3,12.6,-001.5,0012.05,0007.14,0006.67
2022-11-05 04:35:00,,0818.0,5.01,0.00,24.4,22.9,00.0,33.2,26.3,12.6,-001.6,0011.76,0007.10,0006.64
2022-11-05 04:36:00,,0818.1,5.01,0.00,24.4,22.9,00.0,33.2,26.4,12.6,-001.5,0011.39,0007.06,0006.63
2022-11-05 04:37:00,,0818.1,4.99,0.00,24.4,22.9,00.0,33.2,26.4,12.7,-001.4,0010.79,0007.03,0006.62
2022-11-05 04:38:00,,0818.0,4.99,0.00,24.4,22.8,00.0,33.2,26.3,12.8,-001.0,0010.88,0007.07,0006.64
2022-11-05 04:39:00,,0818.0,5.00,0.00,24.4,22.8,00.0,33.2,26.3,12.6,-000.9,0010.86,0007.09,0006.65
2022-11-05 04:40:00,,0818.0,5.00,0.00,24.4,22.8,00.0,33.2,26.2,12.7,-001.4,0010.66,0007.03,0006.63
2022-11-05 04:41:00,,0818.0,5.00,0.00,24.4,22.8,00.0,33.2,26.3,12.7,-001.3,0010.22,0006.99,0006.62
2022-11-05 04:42:00,,0818.0,5.00,0.00,24.4,22.7,00.0,33.2,26.2,12.7,-001.2,0009.86,0006.98,0006.63
2022-11-05 04:43:00,,0818.0,5.00,0.00,24.4,22.7,00.0,33.2,26.2,12.9,-001.0,0010.29,0007.02,0006.65
2022-11-05 04:44:00,,0818.0,5.00,0.00,24.3,22.7,00.0,33.2,26.2,12.9,-000.6,0011.07,0007.03,0006.68
2022-11-05 04:45:00,,0818.0,5.00,0.00,24.3,22.7,00.0,33.2,26.2,12.8,-000.7,0011.11,0007.03,0006.68
2022-11-05 04:46:00,,0818.0,5.00,0.00,24.3,22.7,00.0,33.2,26.2,12.7,-000.7,0011.14,0007.05,0006.70
2022-11-05 04:47:00,,0817.9,5.00,0.00,24.3,22.7,00.0,33.1,26.2,12.5,-000.7,0011.59,0007.07,0006.69
2022-11-05 04:48:00,,0817.9,5.00,0.00,24.3,22.7,00.0,33.1,26.2,12.5,-000.8,0011.57,0007.07,0006.69
2022-11-05 04:49:00,,0817.9,4.99,0.00,24.3,22.7,00.0,33.1,26.2,12.5,-001.3,0011.47,0007.04,0006.68
2022-11-05 04:50:00,,0817.9,5.01,0.00,24.3,22.7,00.0,33.1,26.2,12.4,-001.6,0011.56,0007.02,0006.67
2022-11-05 04:51:00,,0817.9,5.01,0.00,24.3,22.7,00.0,33.1,26.2,12.4,-001.7,0011.66,0007.01,0006.68
2022-11-05 04:52:00,,0817.8,4.98,0.00,24.3,22.8,00.0,33.1,26.2,12.4,-001.8,0011.70,0007.01,0006.68
2022-11-05 04:53:00,,0817.8,5.00,0.00,24.3,22.8,00.0,33.1,26.2,12.3,-001.5,0011.62,0006.98,0006.66
2022-11-05 04:54:00,,0817.7,5.01,0.00,24.3,22.8,00.0,33.1,26.2,12.4,-001.5,0011.19,0006.96,0006.65
2022-11-05 04:55:00,,0817.8,5.01,0.00,24.3,22.8,00.0,33.1,26.3,12.4,-002.0,0010.40,0006.97,0006.64
2022-11-05 04:56:00,,0817.8,5.00,0.00,24.3,22.8,00.0,33.1,26.2,12.4,-001.7,0010.50,0006.97,0006.63
2022-11-05 04:57:00,,0817.8,4.99,0.00,24.3,22.8,00.0,33.1,26.2,12.1,-001.7,0010.70,0006.97,0006.62
2022-11-05 04:58:00,,0817.7,5.01,0.00,24.3,22.7,00.0,33.1,26.2,12.1,-001.4,0010.41,0006.97,0006.63
2022-11-05 04:59:00,,0817.8,5.01,0.00,24.3,22.7,00.0,33.1,26.2,12.0,-001.4,0010.47,0007.01,0006.65
